YO8RBY-13 Weather Reports


time (UTC)temp
C
wind
direction
speed
KPH
gust
KPH
rain 1hr
cm
rain 24hr
cm
rain mn
cm
humidity
%
barometer
mb
20260506134353 25 0.0 0.0 0.00 0.00 0.00 34 970.2
20260506133353 25 0.0 0.0 0.00 0.00 0.00 33 970.2
20260506132354 25 0.0 0.0 0.00 0.00 0.00 33 970.1
20260506131409 25 0.0 0.0 0.00 0.00 0.00 36 970.2
20260506130353 25 0.0 0.0 0.00 0.00 0.00 33 970.2
20260506125354 25 0.0 0.0 0.00 0.00 0.00 32 970.2
20260506124408 25 0.0 0.0 0.00 0.00 0.00 32 970.3
20260506123408 26 0.0 0.0 0.00 0.00 0.00 31 970.4
20260506122353 26 0.0 0.0 0.00 0.00 0.00 33 970.4
20260506121353 25 0.0 0.0 0.00 0.00 0.00 32 970.4
20260506120353 25 0.0 0.0 0.00 0.00 0.00 31 970.6
20260506115353 26 0.0 0.0 0.00 0.00 0.00 28 970.7
20260506114353 26 0.0 0.0 0.00 0.00 0.00 30 970.8
20260506113353 25 0.0 0.0 0.00 0.00 0.00 29 970.7
20260506112353 25 0.0 0.0 0.00 0.00 0.00 30 970.8
20260506111411 26 0.0 0.0 0.00 0.00 0.00 29 970.9
20260506110353 26 0.0 0.0 0.00 0.00 0.00 28 971.0
20260506105408 25 0.0 0.0 0.00 0.00 0.00 32 971.1
20260506104409 25 0.0 0.0 0.00 0.00 0.00 32 971.2
20260506103355 25 0.0 0.0 0.00 0.00 0.00 35 971.2
20260506102353 25 0.0 0.0 0.00 0.00 0.00 35 971.3
20260506101354 24 0.0 0.0 0.00 0.00 0.00 39 971.5
20260506100354 24 0.0 0.0 0.00 0.00 0.00 43 971.5
20260506095411 23 0.0 0.0 0.00 0.00 0.00 50 971.7
20260506094353 23 0.0 0.0 0.00 0.00 0.00 61 971.7
20260506093408 23 0.0 0.0 0.00 0.00 0.00 65 971.8
20260506092408 23 0.0 0.0 0.00 0.00 0.00 68 971.9
20260506091353 23 0.0 0.0 0.00 0.00 0.00 62 972.0
20260506090354 22 0.0 0.0 0.00 0.00 0.00 61 971.9
20260506085353 23 0.0 0.0 0.00 0.00 0.00 53 971.9
20260506084425 22 0.0 0.0 0.00 0.00 0.00 53 971.9
20260506083353 22 0.0 0.0 0.00 0.00 0.00 59 971.9
20260506082410 21 0.0 0.0 0.00 0.00 0.00 63 971.8
20260506081408 21 0.0 0.0 0.00 0.00 0.00 72 971.9
20260506080424 20 0.0 0.0 0.00 0.00 0.00 66 971.9
20260506073412 21 0.0 0.0 0.00 0.00 0.00 53 971.8
20260506072354 21 0.0 0.0 0.00 0.00 0.00 54 971.7
20260506071353 21 0.0 0.0 0.00 0.00 0.00 49 971.7
20260506070353 21 0.0 0.0 0.00 0.00 0.00 50 971.7
20260506062353 19 0.0 0.0 0.00 0.00 0.00 46 971.8
20260506061353 18 0.0 0.0 0.00 0.00 0.00 48 971.7
20260506060408 18 0.0 0.0 0.00 0.00 0.00 47 971.7
20260506051408 16 0.0 0.0 0.00 0.00 0.00 61 971.7
20260506050354 16 0.0 0.0 0.00 0.00 0.00 61 971.8
20260506044354 15 0.0 0.0 0.00 0.00 0.00 71 971.7
20260506043408 15 0.0 0.0 0.00 0.00 0.00 76 971.7
20260506042353 15 0.0 0.0 0.00 0.00 0.00 83 971.7
20260506041408 14 0.0 0.0 0.00 0.00 0.00 89 971.7
20260506040353 13 0.0 0.0 0.00 0.00 0.00 95 971.7
20260506035353 13 0.0 0.0 0.00 0.00 0.00 10 971.6
20260506034353 13 0.0 0.0 0.00 0.00 0.00 10 971.6
20260506033353 12 0.0 0.0 0.00 0.00 0.00 10 971.6
20260506032353 11 0.0 0.0 0.00 0.00 0.00 10 971.5
20260506031355 11 0.0 0.0 0.00 0.00 0.00 10 971.4
20260506030355 12 0.0 0.0 0.00 0.00 0.00 10 971.4
20260506025353 11 0.0 0.0 0.00 0.00 0.00 10 971.3
20260506024355 10 0.0 0.0 0.00 0.00 0.00 10 971.3
20260506023353 10 0.0 0.0 0.00 0.00 0.00 10 971.3
20260506022353 11 0.0 0.0 0.00 0.00 0.00 10 971.2
20260506021353 11 0.0 0.0 0.00 0.00 0.00 10 971.2
20260506020353 11 0.0 0.0 0.00 0.00 0.00 10 971.2
20260506015354 9 0.0 0.0 0.00 0.00 0.00 10 971.2
20260506014353 9 0.0 0.0 0.00 0.00 0.00 10 971.2
20260506013353 8 0.0 0.0 0.00 0.00 0.00 10 971.0
20260506012353 8 0.0 0.0 0.00 0.00 0.00 10 971.0
20260506011353 8 0.0 0.0 0.00 0.00 0.00 10 971.0
20260506010440 8 0.0 0.0 0.00 0.00 0.00 10 971.1
20260506005355 8 0.0 0.0 0.00 0.00 0.00 10 971.1
20260506004354 8 0.0 0.0 0.00 0.00 0.00 10 971.1
20260506003408 8 0.0 0.0 0.00 0.00 0.00 10 971.0
20260506002353 8 0.0 0.0 0.00 0.00 0.00 10 971.0
20260506001354 8 0.0 0.0 0.00 0.00 0.00 10 971.1
20260506000355 8 0.0 0.0 0.00 0.00 0.00 10 971.4
20260505235353 9 0.0 0.0 0.00 0.00 0.00 10 971.4
20260505234353 10 0.0 0.0 0.00 0.00 0.00 10 971.3
20260505233353 10 0.0 0.0 0.00 0.00 0.00 10 971.3
20260505232354 10 0.0 0.0 0.00 0.00 0.00 10 971.2
20260505231353 10 0.0 0.0 0.00 0.00 0.00 10 971.4
20260505230353 10 0.0 0.0 0.00 0.00 0.00 10 971.4
20260505225353 10 0.0 0.0 0.00 0.00 0.00 10 971.4
20260505224353 11 0.0 0.0 0.00 0.00 0.00 10 971.6
20260505223353 10 0.0 0.0 0.00 0.00 0.00 10 971.6
20260505222354 10 0.0 0.0 0.00 0.00 0.00 10 971.6
20260505221353 11 0.0 0.0 0.00 0.00 0.00 10 971.6
20260505220353 11 0.0 0.0 0.00 0.00 0.00 10 971.5
20260505215426 11 0.0 0.0 0.00 0.00 0.00 10 971.5
20260505214353 11 0.0 0.0 0.00 0.00 0.00 10 971.5
20260505213355 11 0.0 0.0 0.00 0.00 0.00 10 971.4
20260505212353 12 0.0 0.0 0.00 0.00 0.00 10 971.5
20260505211352 12 0.0 0.0 0.00 0.00 0.00 10 971.5
20260505210354 12 0.0 0.0 0.00 0.00 0.00 10 971.4
20260505205352 12 0.0 0.0 0.00 0.00 0.00 10 971.3
20260505204408 12 0.0 0.0 0.00 0.00 0.00 10 971.3
20260505203354 12 0.0 0.0 0.00 0.00 0.00 10 971.3
20260505202353 12 0.0 0.0 0.00 0.00 0.00 10 971.3
20260505201353 12 0.0 0.0 0.00 0.00 0.00 10 971.4
20260505200353 12 0.0 0.0 0.00 0.00 0.00 10 971.2
20260505195353 13 0.0 0.0 0.00 0.00 0.00 10 971.2
20260505194352 13 0.0 0.0 0.00 0.00 0.00 98 971.1
20260505193353 14 0.0 0.0 0.00 0.00 0.00 87 971.1
20260505192352 14 0.0 0.0 0.00 0.00 0.00 96 971.1
20260505191355 12 0.0 0.0 0.00 0.00 0.00 10 971.0
20260505190352 13 0.0 0.0 0.00 0.00 0.00 10 971.0
20260505185353 14 0.0 0.0 0.00 0.00 0.00 97 970.9
20260505184354 13 0.0 0.0 0.00 0.00 0.00 10 970.9
20260505183411 15 0.0 0.0 0.00 0.00 0.00 92 970.6
20260505182408 15 0.0 0.0 0.00 0.00 0.00 86 970.7
20260505181352 14 0.0 0.0 0.00 0.00 0.00 94 970.7
20260505180353 14 0.0 0.0 0.00 0.00 0.00 90 970.6
20260505175424 15 0.0 0.0 0.00 0.00 0.00 92 970.4
20260505174353 15 0.0 0.0 0.00 0.00 0.00 85 970.4
20260505173354 16 0.0 0.0 0.00 0.00 0.00 70 970.3
20260505172441 17 0.0 0.0 0.00 0.00 0.00 61 970.3
20260505171352 18 0.0 0.0 0.00 0.00 0.00 47 970.2
20260505170352 18 0.0 0.0 0.00 0.00 0.00 45 970.2
20260505165408 18 0.0 0.0 0.00 0.00 0.00 51 970.2
20260505164408 20 0.0 0.0 0.00 0.00 0.00 55 970.3
20260505163353 20 0.0 0.0 0.00 0.00 0.00 57 970.2
20260505162409 21 0.0 0.0 0.00 0.00 0.00 63 970.2
20260505161353 22 0.0 0.0 0.00 0.00 0.00 39 970.2
20260505160354 22 0.0 0.0 0.00 0.00 0.00 34 970.2
20260505152352 24 0.0 0.0 0.00 0.00 0.00 28 970.2
20260505151353 25 0.0 0.0 0.00 0.00 0.00 28 970.3
20260505150424 26 0.0 0.0 0.00 0.00 0.00 23 970.3
20260505140352 27 0.0 0.0 0.00 0.00 0.00 24 970.7